Regional Weather Roundup
Issued by NWS

Home | Current Version | Previous Version | Graphics & Text | Print | Product List | Glossary On
Versions: 1 2 3 4 5 6 7 8 9 10 11 12 13 14 15 16 17 18 19 20 21 22 23 24 25 26 27 28 29 30 31 32 33 34 35 36 37 38 39 40 41 42 43 44 45 46 47 48 49 50
596
ASUS45 KPSR 211600
RWRAZ

ARIZONA HOURLY REGIONAL WEATHER ROUNDUP
NATIONAL WEATHER SERVICE PHOENIX AZ
900 AM MST THU MAY 21 2015

NOTE: FAIR INDICATES FEW OR NO CLOUDS BELOW 12,000 FEET WITH NO
SIGNIFICANT WEATHER AND/OR OBSTRUCTIONS TO VISIBILITY.

AZZ001>003-036-211700-
NORTHWEST ARIZONA

CITY           SKY/WX    TMP DP  RH WIND       PRES   REMARKS
KINGMAN        CLOUDY    67  26  21 VRB3      29.90S
$$

AZZ004>008-015-016-018-211700-
NORTH CENTRAL ARIZONA

CITY           SKY/WX    TMP DP  RH WIND       PRES   REMARKS
GRAND CANYON   CLOUDY    55  27  34 S10       30.06F
WILLIAMS       MOSUNNY   57  28  33 SE14G20   30.12S
PRESCOTT       MOSUNNY   62  28  27 SE13G21   29.99F
FLAGSTAFF      NOT AVBL
PAYSON         PTSUNNY   64  32  29 VRB5      30.04S
$$

AZZ009>014-017-211700-
NORTHEAST ARIZONA

CITY           SKY/WX    TMP DP  RH WIND       PRES   REMARKS
WINSLOW        NOT AVBL
SAINT JOHNS    CLOUDY    64  24  21 CALM      30.04F
WINDOW ROCK    CLOUDY    59  35  40 SW6       30.12F
$$

AZZ023-211700-
GREATER PHOENIX AREA

CITY           SKY/WX    TMP DP  RH WIND       PRES   REMARKS
PHOENIX        PTSUNNY   79  38  22 S6        29.83F
GLENDALE       PTSUNNY   77  37  24 E3        29.85F
LUKE AFB       CLOUDY    77  43  29 NE3       29.83F
DEER VALLEY    CLOUDY    75  33  21 S5        29.85F
SCOTTSDALE     CLOUDY    76  36  23 S6        29.87S
MESA-FALCON    PTSUNNY   75  37  25 S7        29.85
MESA-GATEWAY   PTSUNNY   75  45  33 SE6       29.87F
CHANDLER       PTSUNNY   77  39  25 SE5       29.85F
$$

AZZ027-028-211700-
SOUTHWEST MARICOPA COUNTY AND PINAL COUNTY

CITY           SKY/WX    TMP DP  RH WIND       PRES   REMARKS
CASA GRANDE    PTSUNNY   75  36  23 CALM      29.85F
$$

AZZ503-504-507>509-211700-
SOUTHEAST ARIZONA

CITY           SKY/WX    TMP DP  RH WIND       PRES   REMARKS
TUCSON         CLOUDY    72  32  23 S3        29.93F
DAVIS-MONTHAN  PTSUNNY   71  32  23 E1        29.91F
RYAN FIELD       N/A     72  36  26 NW3       29.92F
NOGALES        PTSUNNY   71  27  19 S17G23    29.97F
SIERRA VISTA   PTSUNNY   68  25  19 SE12      30.01F
SAFFORD        PTSUNNY   74  22  14 E7        29.94F
$$

AZZ020-021-025-026-031-211700-
SOUTHWEST ARIZONA

CITY           SKY/WX    TMP DP  RH WIND       PRES   REMARKS
YUMA           CLOUDY    74  41  30 W7        29.82S
$$

CAZ031-033-041-043-047-048-061-211700-
SOUTHERN CALIFORNIA

CITY           SKY/WX    TMP DP  RH WIND       PRES   REMARKS
DOWNTOWN L.A.  NOT AVBL
L.A. AIRPORT   PTSUNNY   60  52  74 SW6       29.97R
SAN DIEGO      CLOUDY    62  48  60 W9        29.99S
BURBANK        PTSUNNY   59  49  69 SW6       29.95S
ONTARIO        CLOUDY    59  48  67 W7        29.96R
RIVERSIDE      CLOUDY    62  46  55 VRB3      29.96R
PALM SPRINGS   SUNNY     72  39  30 NW16G24   29.82S
EL CENTRO NAS  MOSUNNY   73  40  30 W25       29.84S
IMPERIAL       SUNNY     71  42  35 W20       29.81S
BLYTHE         PTSUNNY   74  40  29 S8        29.80S
$$

NVZ020-UTZ003-211700-
SOUTHERN NEVADA-UTAH

CITY           SKY/WX    TMP DP  RH WIND       PRES   REMARKS
LAS VEGAS      NOT AVBL
SALT LAKE CITY PTSUNNY   60  44  55 N3        29.98S
$$

NMZ009-TXZ055-211700-
NEW MEXICO-WEST TEXAS

CITY           SKY/WX    TMP DP  RH WIND       PRES   REMARKS
ALBUQUERQUE    CLOUDY    60  44  55 E25       30.17F
EL PASO        CLOUDY    65  52  62 E12       30.10R
$$


........................KEY........................
SKY/WX - SKY CONDITION/WEATHER
TMP    - TEMPERATURE IN FAHRENHEIT
DP     - DEW POINT IN FAHRENHEIT
RH     - RELATIVE HUMIDITY IN PERCENT
WIND   - DIRECTION AND SPEED IN MILES PER HOUR (MPH)
VRB    - VARIABLE WIND DIRECTION
PRES   - MEAN SEA LEVEL PRESSURE IN INCHES OF MERCURY
         F - FALLING PRESSURE   R - RISING PRESSURE
         S - STEADY PRESSURE
VSB    - VISIBILITY IN MILES
HX     - HEAT INDEX IN FAHRENHEIT
WCI    - WIND CHILL INDEX IN FAHRENHEIT
TC     - TEMPERATURE IN CELSIUS WHICH IS ALSO KNOWN AS
         TEMPERATURE IN CENTIGRADE
AFB    - AIR FORCE BASE
         LUKE AFB IS LUKE AIR FORCE BASE
         DAVIS-MONTHAN IS DAVIS-MONTHAN AIR FORCE BASE
NAS    - NAVAL AIR STATION
         EL CENTRO NAS IS EL CENTRO NAVAL AIR STATION
N/A    - NOT AVAILABLE




USA.gov is the U.S. government's official web portal to all federal, state and local government web resources and services.